User: anonymous   Login
Location: Unspecified
(0.0000°N, 0.0000°E)
Time: 05:06:50
(UTC+00:00)
Language:

Sedsat-1 - Orbit

View from above orbital plane
View from above orbital plane
View from above satellite
View from above satellite

Ground track
Ground track

The orbit data is extracted from the following two-line orbital elements,

1 25509U 98061B   24170.68759122  .00001391  00000-0  25521-3 0  9991
2 25509  31.4318 303.7692 0341160 138.5707 224.1316 14.31890866341271
Epoch (UTC): 18 June 2024 16:30:07
Eccentricity: 0.0341160
inclination: 31.4318°
perigee height: 541 km
apogee height: 1030 km
right ascension of ascending node: 303.7692°
argument of perigee: 138.5707°
revolutions per day: 14.31890866
mean anomaly at epoch: 224.1316°
orbit number at epoch: 34127

The dashed part of the orbit path shows where the satellite is in the earth's shadow,  

DLR